• în România
  • Lista ţărilor
  • Pe 7 zile
  • Temperatura apei
  • Hartă satelitară
  • Meteo pe hartă
  • Widget-uri
  • user-avatar
    Intrare

    Meteo pe oră la Midlothian

    Astăzi, 21 Iulie, Sâmbătă

    Timp Temperatura Precipitaţii Vânt Presiune Umiditate
    00:00 +13°C° 0 mm 2 m/s 736 mmHg 97%
    01:00 +13°C° 0 mm 2 m/s 736 mmHg 97%
    02:00 +13°C° 0 mm 1 m/s 736 mmHg 97%
    03:00 +13°C° 0 mm 1 m/s 736 mmHg 97%
    04:00 +14°C° 0 mm 1 m/s 736 mmHg 97%
    05:00 +14°C° 0 mm 1 m/s 736 mmHg 96%
    06:00 +15°C° 0 mm 2 m/s 736 mmHg 95%
    07:00 +16°C° 0 mm 2 m/s 736 mmHg 92%
    08:00 +16°C° 0 mm 2 m/s 736 mmHg 89%
    09:00 +17°C° 0 mm 2 m/s 736 mmHg 86%
    10:00 +18°C° 0 mm 2 m/s 737 mmHg 83%
    11:00 +18°C° 0 mm 3 m/s 737 mmHg 81%
    12:00 +19°C° 0 mm 3 m/s 737 mmHg 77%
    13:00 +19°C° 0 mm 3 m/s 737 mmHg 77%
    14:00 +19°C° 0 mm 3 m/s 737 mmHg 76%
    15:00 +19°C° 0 mm 4 m/s 737 mmHg 76%
    16:00 +18°C° 0 mm 4 m/s 736 mmHg 77%
    17:00 +18°C° 0 mm 4 m/s 736 mmHg 78%
    18:00 +16°C° 0 mm 5 m/s 736 mmHg 79%
    19:00 +15°C° 0 mm 5 m/s 736 mmHg 82%
    20:00 +14°C° 0 mm 5 m/s 736 mmHg 85%
    21:00 +13°C° 0 mm 5 m/s 736 mmHg 88%
    22:00 +13°C° 0,1 mm 5 m/s 736 mmHg 89%
    23:00 +13°C° 0,1 mm 5 m/s 736 mmHg 91%

    Mâine, 22 Iulie, Duminică

    Timp Temperatura Precipitaţii Vânt Presiune Umiditate
    00:00 +13°C° 0,1 mm 5 m/s 736 mmHg 93%
    01:00 +13°C° 0 mm 5 m/s 736 mmHg 93%
    02:00 +13°C° 0 mm 5 m/s 736 mmHg 94%
    03:00 +14°C° 0 mm 5 m/s 736 mmHg 94%
    04:00 +14°C° 0 mm 5 m/s 736 mmHg 94%
    05:00 +15°C° 0 mm 5 m/s 736 mmHg 93%
    06:00 +15°C° 0 mm 5 m/s 736 mmHg 93%
    07:00 +16°C° 0 mm 5 m/s 736 mmHg 90%
    08:00 +17°C° 0 mm 6 m/s 736 mmHg 87%
    09:00 +19°C° 0 mm 6 m/s 736 mmHg 85%
    10:00 +20°C° 0 mm 6 m/s 737 mmHg 81%
    11:00 +21°C° 0 mm 6 m/s 737 mmHg 78%
    12:00 +22°C° 0 mm 6 m/s 737 mmHg 75%
    13:00 +22°C° 0 mm 6 m/s 737 mmHg 75%
    14:00 +22°C° 0 mm 6 m/s 737 mmHg 75%
    15:00 +22°C° 0 mm 6 m/s 737 mmHg 74%
    16:00 +22°C° 0 mm 6 m/s 737 mmHg 77%
    17:00 +21°C° 0 mm 5 m/s 737 mmHg 79%
    18:00 +20°C° 0 mm 5 m/s 737 mmHg 81%
    19:00 +19°C° 0 mm 5 m/s 737 mmHg 85%
    20:00 +18°C° 0 mm 4 m/s 737 mmHg 89%
    21:00 +17°C° 0 mm 4 m/s 737 mmHg 93%
    22:00 +17°C° 0 mm 3 m/s 737 mmHg 94%
    23:00 +16°C° 0 mm 3 m/s 737 mmHg 96%

    Poimâine, 23 Iulie, Luni

    Timp Temperatura Precipitaţii Vânt Presiune Umiditate
    00:00 +16°C° 0 mm 3 m/s 737 mmHg 97%
    01:00 +16°C° 0 mm 3 m/s 737 mmHg 97%
    02:00 +16°C° 0 mm 3 m/s 737 mmHg 97%
    03:00 +16°C° 0 mm 3 m/s 736 mmHg 97%
    04:00 +16°C° 0 mm 3 m/s 736 mmHg 96%
    05:00 +17°C° 0 mm 4 m/s 736 mmHg 94%
    06:00 +17°C° 0 mm 4 m/s 736 mmHg 93%
    07:00 +17°C° 0 mm 5 m/s 736 mmHg 90%
    08:00 +19°C° 0 mm 5 m/s 736 mmHg 87%
    09:00 +20°C° 0 mm 5 m/s 736 mmHg 84%
    10:00 +20°C° 0,1 mm 6 m/s 736 mmHg 81%
    11:00 +21°C° 0,1 mm 6 m/s 736 mmHg 78%
    12:00 +21°C° 0,1 mm 6 m/s 736 mmHg 76%
    13:00 +21°C° 0,1 mm 6 m/s 736 mmHg 77%
    14:00 +21°C° 0,1 mm 5 m/s 736 mmHg 78%
    15:00 +20°C° 0,1 mm 5 m/s 736 mmHg 80%
    16:00 +20°C° 0,2 mm 5 m/s 736 mmHg 82%
    17:00 +19°C° 0,2 mm 4 m/s 735 mmHg 85%
    18:00 +19°C° 0,2 mm 3 m/s 735 mmHg 87%
    19:00 +18°C° 0,3 mm 3 m/s 735 mmHg 90%
    20:00 +17°C° 0,3 mm 3 m/s 736 mmHg 92%
    21:00 +16°C° 0,3 mm 2 m/s 736 mmHg 95%
    22:00 +16°C° 0,3 mm 3 m/s 735 mmHg 95%
    23:00 +14°C° 0,3 mm 3 m/s 735 mmHg 95%

    24 Iulie, Marţi

    Timp Temperatura Precipitaţii Vânt Presiune Umiditate
    00:00 +14°C° 0,3 mm 3 m/s 735 mmHg 95%
    01:00 +13°C° 0,1 mm 3 m/s 735 mmHg 95%
    02:00 +13°C° 0,1 mm 3 m/s 735 mmHg 95%
    03:00 +12°C° 0,1 mm 3 m/s 735 mmHg 95%
    04:00 +12°C° 0 mm 3 m/s 735 mmHg 94%
    05:00 +12°C° 0 mm 3 m/s 735 mmHg 93%
    06:00 +12°C° 0 mm 3 m/s 735 mmHg 92%
    07:00 +13°C° 0 mm 3 m/s 736 mmHg 87%
    08:00 +14°C° 0 mm 3 m/s 736 mmHg 82%
    09:00 +16°C° 0 mm 3 m/s 736 mmHg 77%
    10:00 +17°C° 0 mm 3 m/s 736 mmHg 74%
    11:00 +17°C° 0 mm 3 m/s 737 mmHg 71%
    12:00 +18°C° 0 mm 3 m/s 737 mmHg 67%
    13:00 +18°C° 0 mm 3 m/s 737 mmHg 65%
    14:00 +18°C° 0 mm 3 m/s 737 mmHg 63%
    15:00 +19°C° 0 mm 3 m/s 737 mmHg 61%
    16:00 +18°C° 0 mm 3 m/s 737 mmHg 63%
    17:00 +18°C° 0 mm 3 m/s 737 mmHg 65%
    18:00 +17°C° 0 mm 3 m/s 737 mmHg 67%
    19:00 +16°C° 0 mm 3 m/s 738 mmHg 73%
    20:00 +13°C° 0 mm 3 m/s 738 mmHg 79%
    21:00 +12°C° 0 mm 2 m/s 738 mmHg 85%
    22:00 +10°C° 0 mm 2 m/s 738 mmHg 86%
    23:00 +9°C° 0 mm 2 m/s 738 mmHg 87%

    25 Iulie, Miercuri

    Timp Temperatura Precipitaţii Vânt Presiune Umiditate
    00:00 +9°C° 0 mm 2 m/s 739 mmHg 88%
    01:00 +9°C° 0 mm 2 m/s 739 mmHg 88%
    02:00 +10°C° 0 mm 1 m/s 739 mmHg 87%
    03:00 +10°C° 0 mm 1 m/s 739 mmHg 87%
    04:00 +11°C° 0 mm 1 m/s 739 mmHg 85%
    05:00 +11°C° 0 mm 1 m/s 739 mmHg 84%
    06:00 +12°C° 0 mm 1 m/s 739 mmHg 83%
    07:00 +14°C° 0 mm 1 m/s 739 mmHg 77%
    08:00 +15°C° 0 mm 1 m/s 739 mmHg 70%
    09:00 +18°C° 0 mm 1 m/s 739 mmHg 64%
    10:00 +18°C° 0 mm 2 m/s 739 mmHg 62%
    11:00 +19°C° 0 mm 2 m/s 739 mmHg 60%
    12:00 +19°C° 0 mm 3 m/s 739 mmHg 58%
    13:00 +20°C° 0 mm 4 m/s 739 mmHg 59%
    14:00 +20°C° 0 mm 4 m/s 738 mmHg 60%
    15:00 +20°C° 0 mm 4 m/s 738 mmHg 60%
    16:00 +20°C° 0 mm 5 m/s 738 mmHg 65%
    17:00 +20°C° 0 mm 5 m/s 737 mmHg 69%
    18:00 +19°C° 0 mm 5 m/s 737 mmHg 73%
    19:00 +18°C° 0 mm 4 m/s 737 mmHg 79%
    20:00 +17°C° 0 mm 4 m/s 737 mmHg 85%
    21:00 +14°C° 0 mm 4 m/s 736 mmHg 91%
    22:00 +14°C° 0 mm 4 m/s 736 mmHg 92%
    23:00 +14°C° 0 mm 3 m/s 736 mmHg 93%

    26 Iulie, Joi

    Timp Temperatura Precipitaţii Vânt Presiune Umiditate
    00:00 +13°C° 0 mm 3 m/s 736 mmHg 93%
    01:00 +13°C° 0 mm 3 m/s 736 mmHg 94%
    02:00 +12°C° 0 mm 3 m/s 736 mmHg 94%
    03:00 +12°C° 0 mm 3 m/s 736 mmHg 94%
    04:00 +12°C° 0 mm 3 m/s 736 mmHg 93%
    05:00 +12°C° 0 mm 3 m/s 737 mmHg 93%
    06:00 +13°C° 0 mm 3 m/s 737 mmHg 92%
    07:00 +14°C° 0 mm 3 m/s 737 mmHg 89%
    08:00 +16°C° 0 mm 3 m/s 738 mmHg 85%
    09:00 +18°C° 0 mm 3 m/s 738 mmHg 82%
    10:00 +19°C° 0 mm 3 m/s 739 mmHg 78%
    11:00 +20°C° 0 mm 2 m/s 739 mmHg 74%
    12:00 +21°C° 0 mm 2 m/s 739 mmHg 71%
    13:00 +21°C° 0,1 mm 2 m/s 739 mmHg 71%
    14:00 +21°C° 0,1 mm 3 m/s 739 mmHg 71%
    15:00 +21°C° 0,1 mm 3 m/s 739 mmHg 71%
    16:00 +21°C° 0,1 mm 3 m/s 739 mmHg 73%
    17:00 +21°C° 0,1 mm 3 m/s 739 mmHg 75%
    18:00 +20°C° 0,1 mm 3 m/s 739 mmHg 77%
    19:00 +19°C° 0 mm 3 m/s 739 mmHg 82%
    20:00 +17°C° 0 mm 3 m/s 739 mmHg 87%
    21:00 +15°C° 0 mm 2 m/s 739 mmHg 92%
    22:00 +15°C° 0 mm 2 m/s 739 mmHg 92%
    23:00 +15°C° 0 mm 2 m/s 739 mmHg 93%
    Arată mai mult